{"data":{"norad_id":45140,"intl_designator":"2020-008K","name":"ONEWEB-0028","alt_names":[],"object_type":"PAYLOAD","status":"ACTIVE","operator":null,"country":"UK","launch_date":"2020-02-06","launch_site_code":"TYMSC","launch_vehicle":null,"mission":null,"orbit_class":"UNKNOWN","rcs_meters":null,"size_class":null,"mass_kg":null,"dimensions":null,"purposes":["comms"],"wikipedia_slug":null,"has_3d_model":false,"image_url":null,"decayed_at":null,"tle_current":{"epoch":"2026-05-25T02:04:18.957792Z","epoch_age_seconds":63586,"freshness":"FRESH","line1":"1 45140U 20008K   26145.08633053 -.00000515  00000+0 -14999-2 0  9996","line2":"2 45140  87.8908  25.6711 0002349  76.9460 283.1930 13.10853101305599","mean_motion":13.10853101,"eccentricity":0.0002349,"inclination_deg":87.8908,"raan_deg":25.6711,"arg_perigee_deg":76.946,"mean_anomaly_deg":283.193,"bstar":-0.0014999,"rev_number":30559,"period_min":109.85212598585,"perigee_km":1218.0759253103,"apogee_km":1221.6454646274,"semimajor_km":7597.9976949689,"source":"CELESTRAK","updated_at":"2026-05-25T13:38:22.334793Z"}}}